Location: Caltech
(34.1382°N, 118.1253°W)
Time: 22:59:05
(UTC-07:00)

Meteor 2-4 Rocket - Visible Passes

Search period start: 30 September 2014 00:00
Search period end: 10 October 2014 00:00
Orbit: 799 x 909 km, 81.2° (Epoch: 30 September)

Date Brightness Start Highest point End Pass type
(mag) Time Alt. Az. Time Alt. Az. Time Alt. Az.
30 Sep 4.9 04:12:22 33° N 04:12:22 33° N 04:15:26 10° N visible
01 Oct 5.4 04:02:12 26° N 04:02:12 26° N 04:04:32 10° N visible
02 Oct 5.7 03:51:58 20° N 03:51:58 20° N 03:53:37 10° N visible
03 Oct 6.0 03:41:41 16° N 03:41:41 16° N 03:42:43 10° N visible
04 Oct 6.3 03:31:21 12° N 03:31:21 12° N 03:31:48 10° N visible
